Regional Weather Roundup
Issued by NWS

Home | Current Version | Previous Version | Text Only | Print | Product List | Glossary On
Versions: 1 2 3 4 5 6 7 8 9 10 11 12 13 14 15 16 17 18 19 20 21 22 23 24 25 26 27 28 29 30 31 32 33 34 35 36 37 38 39 40 41 42 43 44 45 46 47 48 49 50
000
ASUS44 KLUB 280401
RWRTX
WEST TEXAS WEATHER ROUNDUP
NATIONAL WEATHER SERVICE LUBBOCK TX
1100 PM CDT THU APR 27 2017

NOTE: "FAIR" INDICATES FEW OR NO CLOUDS BELOW 12,000 FEET WITH NO
SIGNIFICANT WEATHER AND/OR OBSTRUCTIONS TO VISIBILITY.

TXZ004-006>008-010-012-014-016-OKZ002-280500-
TEXAS PANHANDLE/OKLAHOMA PANHANDLE

CITY           SKY/WX    TMP DP  RH WIND       PRES   REMARKS
AMARILLO       CLOUDY    60  46  59 E10       29.59R
BORGER         CLOUDY    68  31  25 S10       29.54R
CANADIAN       CLOUDY    63  50  64 S22G31    29.49R
DALHART        PTCLDY    56  33  42 W12       29.56R
DUMAS          CLOUDY    57  33  40 W6        29.54R
GUYMON         CLEAR     52  40  63 NW15G28   29.52R
HEREFORD       CLOUDY    62  41  46 NE12      29.60R
PAMPA          CLOUDY    61  48  61 SE18G25   29.57R
PERRYTON       PTCLDY    61  49  65 S13G18    29.49R
$$

TXZ026-029-035-045-048-280500-
SOUTHERN PANHANDLE/SOUTH PLAINS/ROLLING PLAINS

CITY           SKY/WX    TMP DP  RH WIND       PRES   REMARKS
CHILDRESS      CLOUDY    68  47  46 E14G22    29.44S
SEMINOLE       CLOUDY    78  33  19 SW15      29.53R
LUBBOCK        CLOUDY    79  29  16 SW15      29.45S
PLAINVIEW      CLOUDY    60  46  59 NE7       29.49R
SNYDER         CLEAR    N/A N/A N/A S16G23    29.52R
$$

TXZ052-054-060>062-072-078-127-140-154-169-280500-
PERMIAN BASIN/CONCHO VALLEY/BIG COUNTRY/EDWARDS PLATEAU

CITY           SKY/WX    TMP DP  RH WIND       PRES   REMARKS
ABILENE        CLEAR     73  50  44 S17       29.52R
BIG SPRING     CLEAR     74  47  38 S22       29.54R
JUNCTION       CLOUDY    76  56  49 S13G22    29.58F
MIDLAND        CLOUDY    77  43  29 S17       29.54R
ODESSA         PTCLDY    76  42  29 S16       29.55R
SAN ANGELO     CLOUDY    77  52  41 S23G33    29.50R
SONORA         CLEAR     75  57  53 S14       29.63R
SWEETWATER     CLEAR     74  47  38 S15G24    29.54S
WINK           CLOUDY    82  34  17 W10       29.52R
$$

TXZ055-058-074-075-080-082-280500-
FAR WEST/SOUTHWEST MOUNTAINS/TRANS PECOS

CITY           SKY/WX    TMP DP  RH WIND       PRES   REMARKS
ALPINE         CLOUDY    73  29  19 W9        29.76R
DRYDEN           N/A     79  53  40 E12       29.54S
EL PASO        CLOUDY    81  25  12 W25G37    29.62R
FORT STOCKTON  CLEAR     76  44  32 S16       29.57R
GUADALUPE PASS CLOUDY    72  31  22 W35G45    29.70R
MARFA          CLOUDY    63  32  31 E5        29.75R
PECOS          CLEAR     73  36  26 W8        29.54R
PRESIDIO       FAIR      87  34  15 NW14      29.59R
$$

TXZ014-016-019-021>030-083-280500
TEXAS TECH WEST TEXAS MESONET/TEXAS PANHANDLE/NORTHERN SOUTH PLAINS

CITY           SKY/WX    TMP DP  RH WIND       PRES   REMARKS
ABERNATHY 5ENE   N/A     65  45  48 NE12      29.49R
AMARILLO 9NNE    N/A     67  34  29 SW5       29.58R
AMARILLO 7SSE    N/A     59  46  61 E10       29.60R
AMHERST 1NE      N/A     67  41  38 NE9       29.51R
BOOTLEG 11WNW    N/A     57  35  43 N7        29.62R
CANADIAN 6E      N/A     60  49  67 SE16      29.48S
CAPROCK CYN SP   N/A     63  48  58 N13       29.49F
CLARENDON 2WSW   N/A     59  48  68 N9        29.54R
CLAUDE 12SW      N/A     57  47  69 NE8       29.57S
DIMMITT 2NE      N/A     59  43  54 N13       29.56R
FLOYDADA 2NNE    N/A     61  47  61 NE7       29.49R
FRIONA 2NE       N/A     62  39  42 N10       29.59R
GOODLETT 3W      N/A     70  47  42 E20       29.44R
HART 3N          N/A     59  48  67 N8        29.56R
HEREFORD 2NW     N/A     60  39  45 NE6       29.58R
MCLEAN 1E        N/A     59  47  64 E8        29.55R
MEMPHIS 1NE      N/A     66  48  52 NE10      29.50R
MULESHOE 2SSW    N/A     67  37  33 N10       29.55R
OLTON 6S         N/A     62  46  55 N9        29.51R
PALO DURO SP     N/A     61  47  59 S1        29.59R
PAMPA 2E         N/A     58  48  70 SE12      29.57R
PLAINVIEW 1S     N/A     62  47  58 N9        29.50R
SILVERTON 7ESE   N/A     59  47  64 N13       29.50F
TULIA 2ENE       N/A     59  49  70 N8        29.54R
TURKEY 2WSW      N/A     61  50  66 N12       29.47F
UMBARGER 3NNE    N/A     60  43  52 N8        29.60R
$$

TXZ033>036-039>041-045>048-280500
TEXAS TECH WEST TEXAS MESONET/SOUTH PLAINS

CITY           SKY/WX    TMP DP  RH WIND       PRES   REMARKS
AIKEN 3WSW       N/A     62  47  57 NE12      29.50S
ANDREWS 2NE      N/A     78  32  19 SW8       29.53R
ANTON 6SSW       N/A     73  33  22 NW10      29.48R
BROWNFIELD 2S    N/A     75  33  21 SW14      29.49S
DENVR CTY 7WNW   N/A     69  30  24 SW7       29.53R
GAIL 2ESE        N/A     74  43  32 S15       29.49R
LAMESA 2SE       N/A     72  40  31 S13       29.51R
LEVELLAND 4S     N/A     74  27  17 SW16      29.49R
LUBBOCK 3WNW     N/A     77  29  17 S14       29.46S
MORTON 1ENE      N/A     74  29  18 W15       29.51R
ODONNELL 1N      N/A     72  32  22 S9        29.50R
PLAINS 3N        N/A     77  26  15 SW15      29.52R
RALLS 1SE        N/A     71  34  25 S8        29.47R
REESE CENTER     N/A     70  31  23 S13       29.46S
SEAGRAVES 1SW    N/A     72  33  23 SW9       29.51R
SEMINOLE 2NNE    N/A     76  31  19 SW12      29.51R
SLATON 2NE       N/A     74  32  21 S17       29.46S
SNYDER 3E        N/A     73  45  36 S16       29.50R
SUNDOWN 8SW      N/A     71  30  22 SW9       29.50R
TAHOKA 3NNE      N/A     71  33  24 S10       29.48R
WOLFFORTH 6SSW   N/A     69  31  23 S9        29.48R
$$

TXZ031-032-036>038-042>044-280500-
TEXAS TECH WEST TEXAS MESONET/ROLLING PLAINS

CITY           SKY/WX    TMP DP  RH WIND       PRES   REMARKS
ASPERMONT 3NE    N/A     77  44  30 S16       29.45S
FLUVANNA 3WNW    N/A     73  41  31 S16       29.50R
GRAHAM 5SSW      N/A     76  39  26 S18       29.48R
GUTHRIE 10WSW    N/A     79  42  26 S25       29.40S
HASKELL 1NW      N/A     78  46  31 S18G28    29.45R
JAYTON 1SSE      N/A     75  42  30 S10       29.45S
KNOX CITY 3NW    N/A     79  44  29 S22       29.42R
LK A HENRY 1NW   N/A     76  42  29 S13       29.46S
NORTHFIELD 1S    N/A     65  49  54 NW13      29.46R
ODELL 4ENE       N/A     67  50  53 E21       29.49R
PADUCAH 10SW     N/A     69  47  46 W7        29.43R
POST 1NE         N/A     75  41  29 S12       29.46S
RRING SPRGS 3N   N/A     65  50  58 NW9       29.48R
SEYMOUR 3NW      N/A     75  46  35 SE14G23   29.43R
SPUR 1W          N/A     77  40  26 S18       29.42S
WEINERT 2NNE     N/A     78  50  37 S23       29.44R
WHITE RVR 6NE    N/A     76  40  26 S20       29.44S
$$

TXZ052-054-060>062-072-078-127-140-154-169-280500-
TEXAS TECH WEST TEXAS MESONET/PERMIAN BASIN/
CONCHO VALLEY/BIG COUNTRY/EDWARDS PLATEAU

CITY           SKY/WX    TMP DP  RH WIND       PRES   REMARKS
COYANOSA 2N      N/A     83  35  18 SW8       29.54R
JUNCTION 1SSW    N/A     75  57  52 S12       29.59S
MERTZON 3NNE     N/A     75  55  49 S15       29.55R
SAN ANGELO 7NW   N/A     75  50  42 S9G20     29.54R
STRLNG CT 4WSW   N/A     73  50  44 S15       29.54S
ST LAWRNCE 5SW   N/A     73  49  43 S17       29.55S
SWEETWATR 11SW   N/A     73  49  43 S20       29.54R
WALL 1E          N/A     77  54  45 S31       29.51S
$$

TXZ055-058-074-075-080-082-280500-
TEXAS TECH WEST TEXAS MESONET/FAR WEST/SOUTHWEST MOUNTAINS/TRANS PECOS

CITY           SKY/WX    TMP DP  RH WIND       PRES   REMARKS
PRSMN GAP BBNP   N/A     80  43  26 N14       29.57R
GUADLPE MTN NP   N/A     72  29  19 SW7       29.73R
$$




USA.gov is the U.S. government's official web portal to all federal, state and local government web resources and services.